Weather History for Dayton Wright, OH

Change the Weather History Date:

Sunday, May 26, 2013

  Actual Average (KFFO) Record (KFFO)
Temperature  
Mean Temperature 58 °F -  
Max Temperature 69 °F 71 °F 92 °F (2012)
Min Temperature 48 °F 51 °F 44 °F (1999)
Degree Days  
Heating Degree Days 7    
Growing Degree Days 8 (Base 50)    
Moisture  
Dew Point 42 °F    
Average Humidity 52    
Maximum Humidity 83    
Minimum Humidity 34    
Precipitation  
Precipitation 0.00 in - - ()
Sea Level Pressure  
Sea Level Pressure 30.26 in    
Wind  
Wind Speed 3 mph (East)    
Max Wind Speed 8 mph    
Max Gust Speed -    
Visibility 10 miles    
Events      
Averages and records for this station are not official NWS values.
T = Trace of Precipitation, MM = Missing Value Source: NWS Daily Summary

Daily Weather History Graph

Daily Weather History Graph

Search for Another Location

Airport:

Trip Planner

Search our weather history database for the weather conditions in past years. The results will help you decide how hot, cold, wet, or windy it might be!

Date:

Astronomy

May. 26, 2013 Rise Set
Actual Time 6:14 AM EDT 8:54 PM EDT
Civil Twilight 5:42 AM EDT 9:25 PM EDT
Nautical Twilight 5:03 AM EDT 10:04 PM EDT
Astronomical Twilight 4:19 AM EDT 10:49 PM EDT
Moon 10:40 PM EDT (5/26) 7:42 AM EDT (5/26)
Length of Visible Light 15h 42m
Length of Day
14h 39m
Waning Gibbous, 97% of the Moon is Illuminated
May 26
Waning Gibbous
May 31
Last Quarter
Jun 8
New
Jun 16
First Quarter
Jun 23
Full

Hourly Weather History & Observations

Time (EDT) Temp. Dew Point Humidity Pressure Visibility Wind Dir Wind Speed Gust Speed Precip Events Conditions
12:53 AM 57.9 °F 43.0 °F 58% 30.27 in 10.0 mi Calm Calm - N/A   Overcast
1:53 AM 54.0 °F 44.1 °F 69% 30.27 in 10.0 mi NE 3.5 mph - N/A   Mostly Cloudy
2:53 AM 51.1 °F 43.0 °F 74% 30.27 in 10.0 mi SW 3.5 mph - N/A   Clear
3:53 AM 48.0 °F 43.0 °F 83% 30.27 in 10.0 mi ENE 3.5 mph - N/A   Clear
4:53 AM 48.9 °F 43.0 °F 80% 30.26 in 10.0 mi ENE 3.5 mph - N/A   Partly Cloudy
5:53 AM 51.1 °F 42.1 °F 71% 30.27 in 10.0 mi East 4.6 mph - N/A   Overcast
6:53 AM 51.1 °F 41.0 °F 68% 30.29 in 10.0 mi ENE 5.8 mph - N/A   Overcast
7:53 AM 53.1 °F 39.9 °F 61% 30.30 in 10.0 mi East 5.8 mph - N/A   Overcast
8:53 AM 57.0 °F 37.9 °F 49% 30.30 in 10.0 mi ESE 6.9 mph - N/A   Mostly Cloudy
9:53 AM 60.1 °F 39.9 °F 47% 30.31 in 10.0 mi ESE 8.1 mph - N/A   Clear
10:53 AM 61.0 °F 39.9 °F 46% 30.31 in 10.0 mi SE 4.6 mph - N/A   Clear
11:53 AM 63.0 °F 39.9 °F 43% 30.30 in 10.0 mi Calm Calm - N/A   Clear
12:53 PM 64.9 °F 42.1 °F 43% 30.30 in 10.0 mi Calm Calm - N/A   Clear
1:53 PM 66.9 °F 42.1 °F 40% 30.28 in 10.0 mi ENE 8.1 mph - N/A   Clear
2:53 PM 68.0 °F 44.1 °F 42% 30.27 in 10.0 mi ENE 6.9 mph - N/A   Clear
3:53 PM 66.9 °F 37.9 °F 34% 30.26 in 10.0 mi Calm Calm - N/A   Clear
4:53 PM 66.9 °F 41.0 °F 39% 30.25 in 10.0 mi SSE 3.5 mph - N/A   Clear
5:53 PM 68.0 °F 41.0 °F 37% 30.24 in 10.0 mi Calm Calm - N/A   Clear
6:53 PM 66.0 °F 43.0 °F 43% 30.20 in 10.0 mi SE 5.8 mph - N/A   Clear
7:53 PM 66.0 °F 41.0 °F 40% 30.19 in 10.0 mi East 4.6 mph - N/A   Mostly Cloudy
8:53 PM 64.0 °F 41.0 °F 43% 30.20 in 10.0 mi Calm Calm - N/A   Scattered Clouds
9:53 PM 63.0 °F 42.1 °F 46% 30.20 in 10.0 mi East 4.6 mph - N/A   Overcast
10:53 PM 63.0 °F 42.1 °F 46% 30.22 in 10.0 mi Calm Calm - N/A   Scattered Clouds
11:53 PM 62.1 °F 42.1 °F 48% 30.21 in 10.0 mi SE 4.6 mph - N/A   Mostly Cloudy